Flag for U.S.A. Weather past 2 weeks in Lakeland, Florida, U.S.A.

Now
84 °F

Partly sunny.


Feels Like: 85 °F
Forecast: 70 / 88 °F
Wind: 8 mph from Northeast

Location: Lakeland Regional

Current Time: May 28, 2015 at 2:28:42 PM

Latest Report: May 28, 2015 at 1:50 PM


Visibility: 10 mi

Pressure: 30.13 "Hg

Humidity: 48%

Dew point: 63 °F

Location of LakelandLocation

Historic Weather in Lakeland — Graph

°F

Lakeland temperature yesterday

Maximum temperature yesterday: 90 °F (at 3:50 PM)
Minimum temperature yesterday: 72 °F (at 4:55 AM)
Average temperature yesterday: 78 °F

Past Weeks' High & Low Weather Summary

 TemperatureHumidityPressure
High93 °F (May 22, 3:50 PM)100% (May 20, 4:35 AM)30.24 "Hg (May 20, 4:35 AM)
Low68 °F (May 19, 5:15 AM)38% (May 13, 5:50 PM)29.93 "Hg (May 20, 5:50 PM)
Average78 °F77%30.13 "Hg
* Reported May 13 12:50 PM — May 28 12:50 PM, Lakeland, Weather by CustomWeather, © 2015

Note: Actual official high and low records may vary slightly from our data, if they occured in-between our weather recording intervals... More about our weather records

Advertising

Lakeland weather history for previous 24 hours

 ConditionsComfort  
Time TempWeatherWind HumidityBarometerVisibility
12:50 PM
Thu, May 28
84 °FPartly sunny.6 mph48%30.14 "Hg10 mi
11:55 AM82 °FBroken clouds.No wind55%30.16 "Hg10 mi
10:45 AM81 °FScattered clouds.13 mph58%30.16 "Hg10 mi
9:50 AM81 °FScattered clouds.8 mph62%30.16 "Hg10 mi
8:48 AM77 °FSunny.8 mph69%30.15 "Hg10 mi
7:45 AM73 °FSunny.5 mph78%30.14 "Hg10 mi
6:50 AM70 °FClear.3 mph83%30.12 "Hg10 mi
5:50 AM70 °FClear.6 mph88%30.11 "Hg10 mi
5:35 AM70 °FClear.6 mph83%30.10 "Hg10 mi
5:15 AM70 °FClear.5 mph88%30.11 "Hg10 mi
4:55 AM70 °FClear.5 mph88%30.11 "Hg10 mi
4:35 AM70 °FClear.3 mph88%30.11 "Hg10 mi
4:15 AM70 °FClear.5 mph94%30.11 "Hg10 mi
3:55 AM72 °FClear.5 mph88%30.11 "Hg10 mi
3:35 AM72 °FClear.3 mph88%30.11 "Hg10 mi
3:15 AM72 °FClear.3 mph88%30.11 "Hg10 mi
2:55 AM72 °FClear.3 mph88%30.11 "Hg10 mi
2:15 AM72 °FClear.5 mph88%30.13 "Hg10 mi
1:55 AM72 °FClear.5 mph88%30.14 "Hg10 mi
1:35 AM72 °FClear.6 mph88%30.14 "Hg10 mi
1:15 AM72 °FClear.6 mph88%30.15 "Hg10 mi
12:55 AM72 °FClear.6 mph88%30.14 "Hg10 mi
12:35 AM73 °FClear.6 mph83%30.15 "Hg10 mi
12:15 AM73 °FClear.8 mph83%30.15 "Hg10 mi
11:15 PM
Wed, May 27
75 °FClear.9 mph78%30.16 "Hg10 mi
10:55 PM77 °FClear.9 mph69%30.16 "Hg10 mi
10:35 PM77 °FClear.8 mph69%30.15 "Hg10 mi
10:15 PM77 °FClear.8 mph65%30.15 "Hg10 mi
9:50 PM79 °FClear.9 mph61%30.14 "Hg10 mi
8:50 PM81 °FSunny.9 mph58%30.13 "Hg10 mi
7:50 PM82 °FPassing clouds.9 mph55%30.12 "Hg10 mi
5:50 PM88 °FScattered clouds.16 mph40%30.11 "Hg10 mi
4:50 PM90 °FScattered clouds.10 mph38%30.11 "Hg10 mi
3:50 PM90 °FPartly sunny.10 mph43%30.13 "Hg10 mi
2:50 PM88 °FPartly sunny.12 mph46%30.14 "Hg10 mi
Weather by CustomWeather, © 2015

See weather overviewHow to use our weather pages